Flag for Lebanon Weather past 2 weeks in Sidon, Lebanon

Now
88 °F

Fog.


Feels Like: 100 °F
Forecast: 83 / 90 °F
Wind: 10 mph from Southwest

Location: Beirut Airport

Current Time: Aug 5, 2015 at 4:34:11 PM

Latest Report: Aug 5, 2015 at 4:00 PM


Visibility: 3 mi

Pressure: 29.80 "Hg

Humidity: 70%

Dew point: 77 °F

Location of SidonLocation

Historic Weather in Sidon — Graph

°F

Sidon temperature yesterday

Maximum temperature yesterday: 88 °F (at 11:00 AM)
Minimum temperature yesterday: 82 °F (at 7:00 AM)
Average temperature yesterday: 86 °F

Past Weeks' High & Low Weather Summary

 TemperatureHumidityPressure
High99 °F (Jul 24, 9:00 AM)89% (Aug 3, 6:00 AM)29.86 "Hg (Aug 3, 6:00 AM)
Low75 °F (Jul 22, 6:00 AM)22% (Jul 24, 7:00 AM)29.68 "Hg (Jul 28, 5:00 AM)
Average84 °F69%29.78 "Hg
* Reported Jul 21 3:00 PM — Aug 5 3:00 PM, Sidon, Weather by CustomWeather, © 2015

Note: Actual official high and low records may vary slightly from our data, if they occured in-between our weather recording intervals... More about our weather records

Advertising

Sidon weather history for previous 24 hours

 ConditionsComfort  
Time TempWeatherWind HumidityBarometerVisibility
3:00 PM
Wed, Aug 5
88 °FFog.10 mph70%29.80 "Hg3 mi
2:00 PM90 °FFog.12 mph67%29.80 "Hg3 mi
1:00 PM88 °FFog.12 mph70%29.80 "Hg3 mi
12:00 PM86 °FFog.9 mph75%29.80 "Hg3 mi
11:00 AM86 °FFog.9 mph75%29.80 "Hg3 mi
10:00 AM86 °FPassing clouds.8 mph75%29.80 "Hg5 mi
9:00 AM84 °FPassing clouds.8 mph79%29.80 "Hg5 mi
8:00 AM84 °FPassing clouds.7 mph74%29.80 "Hg5 mi
7:00 AM82 °FPassing clouds.6 mph70%29.80 "Hg4 mi
6:00 AM81 °FFog.3 mph74%29.80 "Hg3 mi
5:00 AM82 °FFog.2 mph74%29.77 "Hg3 mi
4:00 AM82 °FFog.8 mph79%29.77 "Hg3 mi
3:00 AM82 °FFog.6 mph84%29.77 "Hg3 mi
2:00 AM82 °FFog.7 mph84%29.80 "Hg3 mi
1:00 AM84 °FFog.9 mph79%29.80 "Hg3 mi
12:00 AM84 °FFog.5 mph84%29.80 "Hg3 mi
11:00 PM
Tue, Aug 4
84 °FFog.5 mph84%29.80 "Hg3 mi
9:00 PM84 °FFog.3 mph84%29.77 "Hg3 mi
8:00 PM84 °FFog.3 mph84%29.74 "Hg3 mi
7:00 PM86 °FSunny.6 mph79%29.74 "Hg4 mi
6:00 PM86 °FSunny.3 mph79%29.74 "Hg4 mi
5:00 PM88 °FFog.6 mph75%29.77 "Hg3 mi
4:00 PM88 °FFog.8 mph70%29.77 "Hg3 mi
Weather by CustomWeather, © 2015

See weather overviewHow to use our weather pages